Volver al catálogo

STARLINK-37768

ActivoComunicacionesSSO
NORAD 69331·PAYLOAD·🇺🇸 United States

Lanzado Jun 3, 2026 desde Vandenberg Space Force Base

Loading…

Próximos Pases (próximas 24 horas)

TLE

ActualizadoSource: CelesTrak SupGP

Época: Sep 14, 2026, 15:37 UTC

1 69331C 26122C   26257.65118056 -.00035086  00000+0 -10873-2 0  2570
2 69331  97.2826 286.2899 0001766 102.4581  81.4899 15.33510826    17

Sigue STARLINK-37768 en tiempo real con AllMySat

Download on the App Store